User: anonymous   Login
Location: Newark
(34.6283°N, 36.0776°E)
Time: 14:51:13
(UTC+00:00)
Language:

Explorer 7 - Orbit

View from above orbital plane
View from above orbital plane
View from above satellite
View from above satellite

Ground track
Ground track

The orbit data is extracted from the following two-line orbital elements,

1    22U 59009A   19260.18775707  .00000098  00000-0  30402-4 0  9997
2    22  50.2853 308.7291 0140168 290.9475  67.6520 14.94923104184292
Epoch (UTC): 17 September 2019 04:30:22
Eccentricity: 0.0140168
inclination: 50.2853°
perigee height: 485 km
apogee height: 680 km
right ascension of ascending node: 308.7291°
argument of perigee: 290.9475°
revolutions per day: 14.94923104
mean anomaly at epoch: 67.6520°
orbit number at epoch: 18429

The dashed part of the orbit path shows where the satellite is in the earth's shadow,  

DLR